| time (UTC) | temp F | wind direction | speed knots | gust knots | rain 1hr in | rain 24hr in | rain mn in | humidity % | barometer mb |
| 20260508200504 | 67 | 245 | 8.7 | 14.8 | 0.00 | 0.00 | 0.00 | 41 | 1009.9 |
| 20260508200004 | 68 | 261 | 6.1 | 13.0 | 0.00 | 0.00 | 0.00 | 42 | 1009.9 |
| 20260508195504 | 68 | 258 | 7.8 | 13.9 | 0.00 | 0.00 | 0.00 | 41 | 1009.9 |
| 20260508195004 | 68 | 287 | 7.8 | 17.4 | 0.00 | 0.00 | 0.00 | 41 | 1009.9 |
| 20260508194504 | 69 | 260 | 13.0 | 17.4 | 0.00 | 0.00 | 0.00 | 38 | 1010.0 |
| 20260508194004 | 69 | 250 | 7.0 | 17.4 | 0.00 | 0.00 | 0.00 | 41 | 1010.1 |
| 20260508193504 | 69 | 229 | 10.4 | 18.2 | 0.00 | 0.00 | 0.00 | 40 | 1010.1 |
| 20260508192004 | 71 | 251 | 12.2 | 18.2 | 0.00 | 0.00 | 0.00 | 39 | 1010.3 |
| 20260508191004 | 70 | 242 | 11.3 | 20.0 | 0.00 | 0.00 | 0.00 | 41 | 1010.5 |
| 20260508190503 | 69 | 231 | 12.2 | 18.2 | 0.00 | 0.00 | 0.00 | 42 | 1010.7 |
| 20260508190004 | 69 | 270 | 11.3 | 18.2 | 0.00 | 0.00 | 0.00 | 42 | 1010.7 |
| 20260508185504 | 69 | 220 | 8.7 | 19.1 | 0.00 | 0.00 | 0.00 | 42 | 1010.9 |
| 20260508185004 | 69 | 251 | 11.3 | 19.1 | 0.00 | 0.00 | 0.00 | 40 | 1011.0 |
| 20260508184504 | 70 | 242 | 11.3 | 19.1 | 0.00 | 0.00 | 0.00 | 43 | 1010.9 |
| 20260508184004 | 69 | 227 | 6.1 | 14.8 | 0.00 | 0.00 | 0.00 | 44 | 1011.2 |
| 20260508183503 | 69 | 225 | 7.8 | 14.8 | 0.00 | 0.00 | 0.00 | 44 | 1011.2 |
| 20260508182504 | 69 | 225 | 10.4 | 17.4 | 0.00 | 0.00 | 0.00 | 44 | 1011.4 |
| 20260508182004 | 68 | 240 | 11.3 | 17.4 | 0.00 | 0.00 | 0.00 | 41 | 1011.5 |
| 20260508181505 | 67 | 253 | 11.3 | 19.1 | 0.00 | 0.00 | 0.00 | 44 | 1011.4 |
| 20260508181004 | 67 | 248 | 11.3 | 19.1 | 0.00 | 0.00 | 0.00 | 42 | 1011.6 |
| 20260508180004 | 67 | 232 | 6.1 | 13.0 | 0.00 | 0.00 | 0.00 | 45 | 1011.6 |
| 20260508175504 | 66 | 265 | 5.2 | 15.6 | 0.00 | 0.00 | 0.00 | 46 | 1011.9 |
| 20260508175004 | 66 | 262 | 7.8 | 17.4 | 0.00 | 0.00 | 0.00 | 42 | 1011.9 |
| 20260508174504 | 66 | 233 | 10.4 | 19.1 | 0.00 | 0.00 | 0.00 | 43 | 1012.2 |
| 20260508174004 | 67 | 288 | 11.3 | 19.1 | 0.00 | 0.00 | 0.00 | 42 | 1012.2 |
| 20260508173504 | 68 | 239 | 8.7 | 13.9 | 0.00 | 0.00 | 0.00 | 45 | 1012.2 |
| 20260508173004 | 68 | 228 | 7.0 | 20.0 | 0.00 | 0.00 | 0.00 | 46 | 1012.3 |
| 20260508172504 | 68 | 290 | 8.7 | 20.0 | 0.00 | 0.00 | 0.00 | 41 | 1012.3 |
| 20260508172004 | 68 | 219 | 12.2 | 20.0 | 0.00 | 0.00 | 0.00 | 44 | 1012.3 |
| 20260508171004 | 67 | 245 | 11.3 | 17.4 | 0.00 | 0.00 | 0.00 | 44 | 1012.4 |
| 20260508170504 | 67 | 211 | 11.3 | 17.4 | 0.00 | 0.00 | 0.00 | 48 | 1012.6 |
| 20260508165504 | 67 | 227 | 7.0 | 13.9 | 0.00 | 0.00 | 0.00 | 49 | 1012.8 |
| 20260508165004 | 67 | 304 | 7.8 | 17.4 | 0.00 | 0.00 | 0.00 | 46 | 1012.8 |
| 20260508164504 | 66 | 228 | 10.4 | 19.1 | 0.00 | 0.00 | 0.00 | 50 | 1012.9 |
| 20260508164004 | 66 | 243 | 13.9 | 19.1 | 0.00 | 0.00 | 0.00 | 44 | 1012.9 |
| 20260508163004 | 65 | 242 | 7.0 | 18.2 | 0.00 | 0.00 | 0.00 | 50 | 1013.2 |
| 20260508162504 | 65 | 261 | 7.8 | 18.2 | 0.00 | 0.00 | 0.00 | 48 | 1013.2 |
| 20260508162004 | 64 | 290 | 11.3 | 18.2 | 0.00 | 0.00 | 0.00 | 48 | 1013.2 |
| 20260508161504 | 64 | 289 | 11.3 | 18.2 | 0.00 | 0.00 | 0.00 | 46 | 1013.2 |
| 20260508161004 | 64 | 238 | 13.0 | 18.2 | 0.00 | 0.00 | 0.00 | 47 | 1013.3 |
| 20260508160504 | 64 | 255 | 10.4 | 18.2 | 0.00 | 0.00 | 0.00 | 49 | 1013.3 |
| 20260508155504 | 64 | 263 | 9.6 | 18.2 | 0.00 | 0.00 | 0.00 | 48 | 1013.3 |
| 20260508154504 | 63 | 253 | 10.4 | 20.0 | 0.00 | 0.00 | 0.00 | 50 | 1013.4 |
| 20260508154004 | 63 | 259 | 10.4 | 20.0 | 0.00 | 0.00 | 0.00 | 46 | 1013.6 |
| 20260508153504 | 63 | 252 | 11.3 | 19.1 | 0.00 | 0.00 | 0.00 | 51 | 1013.6 |
| 20260508152004 | 63 | 278 | 7.8 | 17.4 | 0.00 | 0.00 | 0.00 | 48 | 1013.8 |
| 20260508151504 | 63 | 262 | 9.6 | 17.4 | 0.00 | 0.00 | 0.00 | 47 | 1014.0 |
| 20260508151004 | 62 | 233 | 8.7 | 15.6 | 0.00 | 0.00 | 0.00 | 52 | 1014.0 |
| 20260508150005 | 62 | 259 | 7.8 | 12.2 | 0.00 | 0.00 | 0.00 | 51 | 1013.9 |
| 20260508145504 | 61 | 270 | 5.2 | 17.4 | 0.00 | 0.00 | 0.00 | 53 | 1013.8 |
| 20260508145004 | 60 | 261 | 7.0 | 17.4 | 0.00 | 0.00 | 0.00 | 54 | 1014.0 |
| 20260508144505 | 60 | 266 | 10.4 | 17.4 | 0.00 | 0.00 | 0.00 | 52 | 1014.2 |
| 20260508144004 | 59 | 295 | 10.4 | 17.4 | 0.00 | 0.00 | 0.00 | 52 | 1014.2 |
| 20260508143504 | 59 | 278 | 11.3 | 18.2 | 0.00 | 0.00 | 0.00 | 52 | 1014.2 |
| 20260508142504 | 59 | 245 | 8.7 | 13.0 | 0.00 | 0.00 | 0.00 | 53 | 1014.3 |
| 20260508142004 | 59 | 245 | 6.1 | 12.2 | 0.00 | 0.00 | 0.00 | 55 | 1014.3 |
| 20260508141504 | 58 | 231 | 7.0 | 12.2 | 0.00 | 0.00 | 0.00 | 54 | 1014.3 |
| 20260508141004 | 58 | 258 | 7.0 | 13.9 | 0.00 | 0.00 | 0.00 | 55 | 1014.2 |
| 20260508140504 | 58 | 222 | 4.3 | 14.8 | 0.00 | 0.00 | 0.00 | 57 | 1014.3 |
| 20260508140004 | 58 | 262 | 7.0 | 14.8 | 0.00 | 0.00 | 0.00 | 57 | 1014.4 |
| 20260508135504 | 57 | 230 | 6.1 | 14.8 | 0.00 | 0.00 | 0.00 | 57 | 1014.4 |
| 20260508135004 | 56 | 218 | 6.1 | 13.9 | 0.00 | 0.00 | 0.00 | 58 | 1014.4 |
| 20260508134504 | 56 | 255 | 7.8 | 13.9 | 0.00 | 0.00 | 0.00 | 58 | 1014.3 |
| 20260508134004 | 56 | 250 | 6.1 | 13.0 | 0.00 | 0.00 | 0.00 | 60 | 1014.3 |
| 20260508133504 | 55 | 259 | 6.1 | 10.4 | 0.00 | 0.00 | 0.00 | 60 | 1014.3 |
| 20260508133004 | 55 | 238 | 6.1 | 10.4 | 0.00 | 0.00 | 0.00 | 59 | 1014.4 |
| 20260508132504 | 54 | 227 | 6.1 | 11.3 | 0.00 | 0.00 | 0.00 | 63 | 1014.3 |
| 20260508132004 | 53 | 259 | 7.0 | 11.3 | 0.00 | 0.00 | 0.00 | 62 | 1014.3 |
| 20260508131504 | 53 | 234 | 5.2 | 8.7 | 0.00 | 0.00 | 0.00 | 63 | 1014.3 |
| 20260508131004 | 52 | 238 | 4.3 | 10.4 | 0.00 | 0.00 | 0.00 | 65 | 1014.2 |
| 20260508130004 | 51 | 202 | 5.2 | 10.4 | 0.00 | 0.00 | 0.00 | 68 | 1014.2 |
| 20260508125004 | 50 | 219 | 4.3 | 7.8 | 0.00 | 0.00 | 0.00 | 66 | 1014.3 |
| 20260508124504 | 50 | 217 | 5.2 | 7.0 | 0.00 | 0.00 | 0.00 | 67 | 1014.2 |
| 20260508123504 | 50 | 219 | 4.3 | 7.0 | 0.00 | 0.00 | 0.00 | 67 | 1014.1 |
| 20260508123004 | 50 | 209 | 4.3 | 7.8 | 0.00 | 0.00 | 0.00 | 68 | 1014.1 |
| 20260508122503 | 49 | 203 | 3.5 | 7.8 | 0.00 | 0.00 | 0.00 | 69 | 1014.2 |
| 20260508122004 | 49 | 226 | 4.3 | 7.8 | 0.00 | 0.00 | 0.00 | 69 | 1014.3 |
| 20260508121504 | 49 | 219 | 4.3 | 6.1 | 0.00 | 0.00 | 0.00 | 72 | 1014.2 |
| 20260508121004 | 48 | 198 | 3.5 | 6.1 | 0.00 | 0.00 | 0.00 | 72 | 1014.2 |
| 20260508120504 | 47 | 211 | 2.6 | 5.2 | 0.00 | 0.00 | 0.00 | 72 | 1014.1 |
| 20260508120004 | 47 | 193 | 2.6 | 5.2 | 0.00 | 0.00 | 0.00 | 73 | 1014.1 |
| 20260508115504 | 46 | 223 | 1.7 | 2.6 | 0.00 | 0.00 | 0.00 | 73 | 1014.0 |
| 20260508115004 | 46 | 232 | 0.9 | 2.6 | 0.00 | 0.00 | 0.00 | 74 | 1013.9 |
| 20260508114504 | 46 | 208 | 1.7 | 2.6 | 0.00 | 0.00 | 0.00 | 74 | 1013.8 |
| 20260508113504 | 45 | 209 | 1.7 | 4.3 | 0.00 | 0.00 | 0.00 | 74 | 1013.8 |
| 20260508113005 | 45 | 220 | 2.6 | 4.3 | 0.00 | 0.00 | 0.00 | 74 | 1013.7 |
| 20260508112504 | 45 | 217 | 2.6 | 4.3 | 0.00 | 0.00 | 0.00 | 75 | 1013.7 |
| 20260508112004 | 45 | 213 | 1.7 | 4.3 | 0.00 | 0.00 | 0.00 | 75 | 1013.7 |
| 20260508111504 | 44 | 200 | 0.9 | 4.3 | 0.00 | 0.00 | 0.00 | 75 | 1013.6 |
| 20260508111004 | 44 | 195 | 1.7 | 4.3 | 0.00 | 0.00 | 0.00 | 76 | 1013.7 |
| 20260508110503 | 44 | 197 | 2.6 | 4.3 | 0.00 | 0.00 | 0.00 | 77 | 1013.8 |
| 20260508110004 | 44 | 192 | 0.9 | 2.6 | 0.00 | 0.00 | 0.00 | 77 | 1013.7 |
| 20260508105504 | 44 | 170 | 0.9 | 1.7 | 0.00 | 0.00 | 0.00 | 78 | 1013.7 |
| 20260508105004 | 43 | 235 | 0.0 | 0.0 | 0.00 | 0.00 | 0.00 | 78 | 1013.6 |
| 20260508104504 | 43 | 235 | 0.0 | 0.0 | 0.00 | 0.00 | 0.00 | 78 | 1013.6 |
| 20260508104004 | 43 | 182 | 0.0 | 0.0 | 0.00 | 0.00 | 0.00 | 79 | 1013.6 |
| 20260508103504 | 43 | 150 | 0.0 | 0.9 | 0.00 | 0.00 | 0.00 | 79 | 1013.6 |
| 20260508103004 | 42 | 200 | 0.0 | 0.9 | 0.00 | 0.00 | 0.00 | 80 | 1013.6 |
| 20260508102504 | 42 | 205 | 0.0 | 0.9 | 0.00 | 0.00 | 0.00 | 80 | 1013.5 |
| 20260508102004 | 42 | 212 | 0.0 | 0.0 | 0.00 | 0.00 | 0.00 | 80 | 1013.4 |
| 20260508101504 | 42 | 212 | 0.0 | 0.0 | 0.00 | 0.00 | 0.00 | 80 | 1013.4 |
| 20260508100504 | 42 | 212 | 0.0 | 0.0 | 0.00 | 0.00 | 0.00 | 80 | 1013.4 |
| 20260508095504 | 41 | 212 | 0.0 | 0.0 | 0.00 | 0.01 | 0.00 | 81 | 1013.4 |
| 20260508095004 | 41 | 212 | 0.0 | 0.0 | 0.00 | 0.01 | 0.00 | 80 | 1013.5 |
| 20260508094504 | 41 | 212 | 0.0 | 0.0 | 0.00 | 0.01 | 0.00 | 80 | 1013.5 |
| 20260508094004 | 41 | 212 | 0.0 | 0.0 | 0.00 | 0.01 | 0.00 | 80 | 1013.5 |
| 20260508093504 | 41 | 212 | 0.0 | 0.0 | 0.00 | 0.01 | 0.00 | 80 | 1013.6 |
| 20260508093004 | 41 | 212 | 0.0 | 0.0 | 0.00 | 0.01 | 0.00 | 79 | 1013.6 |
| 20260508092504 | 41 | 212 | 0.0 | 0.0 | 0.00 | 0.01 | 0.00 | 79 | 1013.6 |
| 20260508092004 | 42 | 212 | 0.0 | 0.0 | 0.00 | 0.01 | 0.00 | 79 | 1013.6 |
| 20260508091504 | 41 | 212 | 0.0 | 0.0 | 0.00 | 0.01 | 0.00 | 78 | 1013.6 |
| 20260508091004 | 42 | 212 | 0.0 | 0.0 | 0.00 | 0.01 | 0.00 | 78 | 1013.6 |
| 20260508090005 | 41 | 212 | 0.0 | 0.0 | 0.00 | 0.01 | 0.00 | 78 | 1013.4 |
| 20260508085504 | 41 | 212 | 0.0 | 0.0 | 0.00 | 0.01 | 0.00 | 76 | 1013.4 |
| 20260508084504 | 42 | 212 | 0.0 | 0.0 | 0.00 | 0.01 | 0.00 | 75 | 1013.4 |
| 20260508084004 | 42 | 212 | 0.0 | 0.0 | 0.00 | 0.01 | 0.00 | 74 | 1013.3 |
| 20260508083504 | 42 | 212 | 0.0 | 0.0 | 0.00 | 0.01 | 0.00 | 73 | 1013.3 |
| 20260508083004 | 42 | 212 | 0.0 | 0.0 | 0.00 | 0.01 | 0.00 | 73 | 1013.2 |
| 20260508082504 | 42 | 212 | 0.0 | 0.0 | 0.00 | 0.01 | 0.00 | 72 | 1013.2 |
| 20260508082003 | 43 | 212 | 0.0 | 0.0 | 0.00 | 0.01 | 0.00 | 73 | 1013.2 |
| 20260508081504 | 43 | 212 | 0.0 | 0.0 | 0.00 | 0.01 | 0.00 | 72 | 1013.3 |
| 20260508081005 | 43 | 212 | 0.0 | 0.0 | 0.00 | 0.01 | 0.00 | 72 | 1013.2 |
| 20260508080504 | 43 | 212 | 0.0 | 0.0 | 0.00 | 0.01 | 0.00 | 72 | 1013.2 |
| 20260508080004 | 43 | 212 | 0.0 | 0.0 | 0.00 | 0.01 | 0.00 | 71 | 1013.2 |
| 20260508075505 | 44 | 212 | 0.0 | 0.0 | 0.00 | 0.01 | 0.00 | 71 | 1013.2 |
| 20260508074504 | 44 | 212 | 0.0 | 0.0 | 0.00 | 0.01 | 0.00 | 70 | 1013.2 |
| 20260508074004 | 44 | 212 | 0.0 | 0.0 | 0.00 | 0.01 | 0.00 | 69 | 1013.2 |
| 20260508073504 | 44 | 212 | 0.0 | 0.0 | 0.00 | 0.01 | 0.00 | 69 | 1013.3 |
| 20260508072504 | 45 | 212 | 0.0 | 0.0 | 0.00 | 0.01 | 0.00 | 68 | 1013.3 |
| 20260508072004 | 45 | 221 | 0.0 | 0.0 | 0.00 | 0.01 | 0.00 | 68 | 1013.3 |
| 20260508071504 | 45 | 221 | 0.0 | 0.0 | 0.00 | 0.01 | 0.00 | 67 | 1013.3 |
| 20260508070505 | 45 | 233 | 0.0 | 0.0 | 0.00 | 0.01 | 0.00 | 66 | 1013.5 |
| 20260508070005 | 45 | 234 | 0.0 | 0.0 | 0.00 | 0.01 | 0.00 | 66 | 1013.6 |
| 20260508065504 | 46 | 236 | 0.0 | 0.0 | 0.00 | 0.01 | 0.00 | 66 | 1013.7 |
| 20260508065004 | 46 | 247 | 0.0 | 0.0 | 0.00 | 0.01 | 0.00 | 66 | 1013.8 |
| 20260508064504 | 46 | 248 | 0.0 | 0.0 | 0.00 | 0.01 | 0.00 | 66 | 1013.9 |
| 20260508064004 | 46 | 248 | 0.0 | 0.0 | 0.00 | 0.01 | 0.00 | 66 | 1013.9 |
| 20260508063504 | 45 | 248 | 0.0 | 1.7 | 0.00 | 0.01 | 0.00 | 67 | 1013.9 |
| 20260508062504 | 45 | 248 | 0.9 | 2.6 | 0.00 | 0.01 | 0.00 | 68 | 1013.9 |
| 20260508062004 | 45 | 248 | 1.7 | 2.6 | 0.00 | 0.01 | 0.00 | 68 | 1013.9 |
| 20260508061504 | 45 | 227 | 0.0 | 2.6 | 0.00 | 0.01 | 0.00 | 68 | 1014.0 |
| 20260508060505 | 45 | 231 | 0.9 | 2.6 | 0.00 | 0.01 | 0.00 | 68 | 1014.0 |
| 20260508060004 | 45 | 222 | 0.9 | 2.6 | 0.00 | 0.01 | 0.00 | 68 | 1014.0 |
| 20260508055504 | 45 | 223 | 0.9 | 2.6 | 0.00 | 0.01 | 0.00 | 68 | 1014.1 |
| 20260508055004 | 45 | 241 | 0.0 | 1.7 | 0.00 | 0.01 | 0.00 | 68 | 1014.1 |
| 20260508054504 | 45 | 245 | 0.0 | 1.7 | 0.00 | 0.01 | 0.00 | 68 | 1014.1 |
| 20260508054004 | 45 | 224 | 0.0 | 0.0 | 0.00 | 0.01 | 0.00 | 69 | 1014.0 |
| 20260508053504 | 45 | 223 | 0.0 | 0.0 | 0.00 | 0.01 | 0.00 | 69 | 1014.0 |
| 20260508053004 | 45 | 221 | 0.0 | 0.0 | 0.00 | 0.01 | 0.00 | 68 | 1013.9 |
| 20260508052504 | 45 | 221 | 0.0 | 0.0 | 0.00 | 0.01 | 0.00 | 68 | 1013.9 |
| 20260508052004 | 45 | 221 | 0.0 | 1.7 | 0.00 | 0.01 | 0.00 | 68 | 1013.9 |
| 20260508051504 | 45 | 221 | 0.0 | 2.6 | 0.00 | 0.01 | 0.00 | 68 | 1013.9 |
| 20260508051004 | 45 | 221 | 0.9 | 2.6 | 0.00 | 0.01 | 0.00 | 68 | 1013.9 |
| 20260508050504 | 45 | 222 | 0.9 | 1.7 | 0.00 | 0.01 | 0.00 | 68 | 1013.9 |
| 20260508045504 | 45 | 219 | 0.9 | 2.6 | 0.00 | 0.01 | 0.00 | 68 | 1013.9 |
| 20260508045004 | 45 | 219 | 0.9 | 2.6 | 0.00 | 0.01 | 0.00 | 68 | 1014.0 |
| 20260508044504 | 45 | 227 | 0.9 | 2.6 | 0.00 | 0.01 | 0.00 | 69 | 1013.9 |
| 20260508044004 | 45 | 229 | 0.9 | 2.6 | 0.00 | 0.01 | 0.00 | 69 | 1013.8 |
| 20260508043504 | 45 | 225 | 1.7 | 2.6 | 0.00 | 0.01 | 0.00 | 70 | 1013.8 |
| 20260508043004 | 45 | 227 | 1.7 | 2.6 | 0.00 | 0.01 | 0.00 | 70 | 1013.9 |
| 20260508042504 | 45 | 218 | 0.9 | 2.6 | 0.00 | 0.01 | 0.00 | 71 | 1013.8 |
| 20260508042004 | 45 | 218 | 0.9 | 2.6 | 0.00 | 0.01 | 0.00 | 71 | 1013.8 |
| 20260508041505 | 45 | 222 | 0.9 | 2.6 | 0.00 | 0.01 | 0.00 | 71 | 1013.8 |
| 20260508041004 | 44 | 221 | 0.0 | 1.7 | 0.00 | 0.01 | 0.00 | 72 | 1013.9 |
| 20260508040504 | 44 | 221 | 0.9 | 2.6 | 0.00 | 0.01 | 0.00 | 73 | 1013.9 |
| 20260508040004 | 44 | 221 | 0.9 | 2.6 | 0.00 | 0.01 | 0.00 | 73 | 1013.9 |
| 20260508035504 | 44 | 221 | 0.9 | 2.6 | 0.00 | 0.01 | 0.01 | 73 | 1013.9 |
| 20260508035004 | 44 | 221 | 0.9 | 2.6 | 0.00 | 0.01 | 0.01 | 74 | 1013.9 |
| 20260508034504 | 44 | 229 | 1.7 | 2.6 | 0.00 | 0.01 | 0.01 | 74 | 1014.0 |
| 20260508034004 | 44 | 241 | 0.9 | 1.7 | 0.00 | 0.01 | 0.01 | 76 | 1014.0 |
| 20260508032504 | 44 | 239 | 0.0 | 1.7 | 0.00 | 0.01 | 0.01 | 77 | 1013.8 |
| 20260508031504 | 44 | 242 | 0.0 | 0.0 | 0.00 | 0.01 | 0.01 | 76 | 1013.9 |
| 20260508031004 | 44 | 242 | 0.0 | 0.0 | 0.00 | 0.01 | 0.01 | 75 | 1013.9 |
| 20260508030504 | 44 | 242 | 0.0 | 0.0 | 0.00 | 0.01 | 0.01 | 76 | 1013.8 |
| 20260508030005 | 44 | 242 | 0.0 | 0.0 | 0.00 | 0.01 | 0.01 | 76 | 1013.8 |
| 20260508025004 | 44 | 242 | 0.0 | 0.0 | 0.00 | 0.01 | 0.01 | 74 | 1013.8 |
| 20260508024504 | 44 | 242 | 0.0 | 0.0 | 0.00 | 0.01 | 0.01 | 75 | 1013.8 |
| 20260508024004 | 45 | 242 | 0.0 | 0.0 | 0.00 | 0.01 | 0.01 | 75 | 1013.8 |
| 20260508023504 | 45 | 242 | 0.0 | 0.0 | 0.00 | 0.01 | 0.01 | 75 | 1013.9 |
| 20260508023004 | 45 | 242 | 0.0 | 1.7 | 0.00 | 0.01 | 0.01 | 76 | 1013.9 |
| 20260508022504 | 45 | 242 | 0.0 | 1.7 | 0.00 | 0.01 | 0.01 | 75 | 1013.6 |
| 20260508022004 | 45 | 242 | 0.9 | 1.7 | 0.00 | 0.01 | 0.01 | 73 | 1013.7 |
| 20260508021504 | 45 | 242 | 0.0 | 0.0 | 0.00 | 0.01 | 0.01 | 73 | 1013.8 |
| 20260508021004 | 46 | 242 | 0.0 | 0.0 | 0.00 | 0.01 | 0.01 | 72 | 1013.9 |
| 20260508020504 | 46 | 242 | 0.0 | 0.0 | 0.00 | 0.01 | 0.01 | 71 | 1014.0 |
| 20260508020005 | 46 | 242 | 0.0 | 0.9 | 0.00 | 0.01 | 0.01 | 70 | 1013.9 |
| 20260508015505 | 47 | 242 | 0.0 | 0.9 | 0.00 | 0.01 | 0.01 | 70 | 1013.9 |
| 20260508015004 | 47 | 242 | 0.0 | 0.9 | 0.00 | 0.01 | 0.01 | 70 | 1014.0 |
| 20260508014004 | 48 | 242 | 0.0 | 0.9 | 0.00 | 0.01 | 0.01 | 67 | 1013.7 |
| 20260508013504 | 48 | 242 | 0.0 | 0.9 | 0.00 | 0.01 | 0.01 | 66 | 1013.7 |
| 20260508013004 | 49 | 242 | 0.0 | 0.9 | 0.00 | 0.01 | 0.01 | 65 | 1013.7 |
| 20260508011504 | 50 | 242 | 0.0 | 0.0 | 0.00 | 0.01 | 0.01 | 61 | 1013.6 |
| 20260508011004 | 51 | 242 | 0.0 | 0.0 | 0.00 | 0.01 | 0.01 | 60 | 1013.5 |
| 20260508010503 | 51 | 242 | 0.0 | 0.0 | 0.00 | 0.01 | 0.01 | 59 | 1013.5 |
| 20260508005504 | 52 | 242 | 0.0 | 1.7 | 0.00 | 0.01 | 0.01 | 56 | 1013.6 |
| 20260508005004 | 53 | 242 | 0.9 | 1.7 | 0.00 | 0.01 | 0.01 | 57 | 1013.4 |
| 20260508004004 | 54 | 242 | 0.0 | 0.0 | 0.00 | 0.01 | 0.01 | 51 | 1013.5 |
| 20260508003504 | 54 | 242 | 0.0 | 0.0 | 0.00 | 0.01 | 0.01 | 50 | 1013.5 |
| 20260508002504 | 56 | 95 | 0.0 | 0.9 | 0.00 | 0.01 | 0.01 | 51 | 1013.4 |
| 20260508002004 | 56 | 25 | 0.0 | 0.9 | 0.00 | 0.01 | 0.01 | 51 | 1013.4 |
| 20260508001504 | 57 | 41 | 0.0 | 0.9 | 0.00 | 0.01 | 0.01 | 46 | 1013.4 |
| 20260508001004 | 57 | 41 | 0.0 | 1.7 | 0.00 | 0.01 | 0.01 | 45 | 1013.5 |
| 20260508000004 | 58 | 325 | 1.7 | 2.6 | 0.00 | 0.01 | 0.01 | 42 | 1013.4 |
| 20260507235005 | 59 | 301 | 2.6 | 6.1 | 0.00 | 0.01 | 0.01 | 40 | 1013.3 |
| 20260507234504 | 59 | 331 | 2.6 | 2.6 | 0.00 | 0.01 | 0.01 | 40 | 1013.4 |
| 20260507234004 | 60 | 2 | 0.9 | 1.7 | 0.00 | 0.01 | 0.01 | 42 | 1013.3 |
| 20260507233504 | 60 | 358 | 0.9 | 2.6 | 0.00 | 0.01 | 0.01 | 43 | 1013.2 |
| 20260507233004 | 60 | 359 | 0.9 | 2.6 | 0.00 | 0.01 | 0.01 | 37 | 1013.1 |
| 20260507232004 | 59 | 8 | 0.0 | 2.6 | 0.00 | 0.01 | 0.01 | 38 | 1013.2 |
| 20260507231504 | 59 | 8 | 0.9 | 6.1 | 0.00 | 0.01 | 0.01 | 39 | 1013.3 |
| 20260507231004 | 59 | 23 | 2.6 | 6.1 | 0.00 | 0.01 | 0.01 | 39 | 1013.3 |
| 20260507230504 | 59 | 327 | 2.6 | 7.8 | 0.00 | 0.01 | 0.01 | 41 | 1013.4 |
| 20260507230005 | 59 | 319 | 3.5 | 10.4 | 0.00 | 0.01 | 0.01 | 41 | 1013.3 |
| 20260507225504 | 59 | 350 | 7.0 | 10.4 | 0.00 | 0.01 | 0.01 | 39 | 1013.3 |
| 20260507225004 | 59 | 343 | 4.3 | 8.7 | 0.00 | 0.01 | 0.01 | 41 | 1013.3 |
| 20260507224504 | 59 | 337 | 0.9 | 7.8 | 0.00 | 0.01 | 0.01 | 42 | 1013.3 |
| 20260507224005 | 59 | 348 | 1.7 | 8.7 | 0.00 | 0.01 | 0.01 | 41 | 1013.2 |
| 20260507223004 | 59 | 291 | 5.2 | 11.3 | 0.00 | 0.01 | 0.01 | 41 | 1013.3 |
| 20260507222504 | 59 | 311 | 6.1 | 11.3 | 0.00 | 0.01 | 0.01 | 40 | 1013.3 |
| 20260507222005 | 59 | 316 | 7.8 | 13.0 | 0.00 | 0.01 | 0.01 | 41 | 1013.3 |
| 20260507221504 | 59 | 308 | 8.7 | 13.0 | 0.00 | 0.01 | 0.01 | 40 | 1013.3 |
| 20260507220504 | 59 | 321 | 6.1 | 11.3 | 0.00 | 0.01 | 0.01 | 38 | 1013.4 |
| 20260507215504 | 60 | 345 | 5.2 | 10.4 | 0.00 | 0.01 | 0.01 | 40 | 1013.3 |
| 20260507215004 | 60 | 330 | 6.1 | 13.0 | 0.00 | 0.01 | 0.01 | 42 | 1013.3 |
| 20260507214504 | 60 | 340 | 5.2 | 13.0 | 0.00 | 0.01 | 0.01 | 43 | 1013.3 |
| 20260507214004 | 60 | 271 | 5.2 | 13.0 | 0.00 | 0.01 | 0.01 | 40 | 1013.2 |
| 20260507213504 | 60 | 329 | 3.5 | 8.7 | 0.00 | 0.01 | 0.01 | 41 | 1013.3 |
| 20260507213004 | 59 | 7 | 2.6 | 7.0 | 0.00 | 0.01 | 0.01 | 41 | 1013.3 |
| 20260507212504 | 59 | 39 | 2.6 | 10.4 | 0.00 | 0.01 | 0.01 | 40 | 1013.3 |
| 20260507210503 | 59 | 356 | 4.3 | 13.9 | 0.00 | 0.01 | 0.01 | 41 | 1013.1 |
| 20260507205504 | 59 | 4 | 2.6 | 18.2 | 0.00 | 0.01 | 0.01 | 40 | 1013.1 |
| 20260507205004 | 59 | 4 | 6.1 | 18.2 | 0.00 | 0.01 | 0.01 | 40 | 1013.1 |
| 20260507204505 | 59 | 332 | 10.4 | 15.6 | 0.00 | 0.01 | 0.01 | 41 | 1013.1 |
| 20260507204004 | 59 | 1 | 7.8 | 13.9 | 0.00 | 0.01 | 0.01 | 43 | 1012.9 |
| 20260507203504 | 59 | 325 | 6.1 | 12.2 | 0.00 | 0.01 | 0.01 | 39 | 1013.2 |
| 20260507203004 | 59 | 330 | 8.7 | 12.2 | 0.00 | 0.01 | 0.01 | 40 | 1013.1 |
| 20260507202504 | 59 | 344 | 7.0 | 12.2 | 0.00 | 0.01 | 0.01 | 43 | 1013.1 |
| 20260507202004 | 59 | 347 | 7.8 | 12.2 | 0.00 | 0.01 | 0.01 | 43 | 1013.1 |
| 20260507201503 | 59 | 346 | 6.1 | 12.2 | 0.00 | 0.01 | 0.01 | 42 | 1013.1 |
| 20260507201004 | 59 | 309 | 4.3 | 14.8 | 0.00 | 0.01 | 0.01 | 45 | 1013.1 |